Stevens Point, WI

8:45 PM CDT on June 23, 2017 (GMT -0500)
Stevens Point Municipal

Weather History for KSTE - January, 2011

Change the Weather History Date:

Thursday, January 20, 2011

  Actual Average Record
Temperature  
Mean Temperature 4 °F -  
Max Temperature 8 °F 24 °F 43 °F (1968)
Min Temperature 0 °F 3 °F -28 °F (1985)
Degree Days  
Heating Degree Days 61    
Moisture  
Dew Point -3 °F    
Average Humidity 75    
Maximum Humidity 92    
Minimum Humidity 61    
Precipitation  
Precipitation 0.00 in - - ()
Sea Level Pressure  
Sea Level Pressure 29.99 in    
Wind  
Wind Speed 5 mph (West)    
Max Wind Speed 13 mph    
Max Gust Speed 23 mph    
Visibility 10 miles    
Events Snow    
Averages and records for this station are not official NWS values.
T = Trace of Precipitation, MM = Missing Value Source: NWS Daily Summary

Daily Weather History Graph

Daily Weather History Graph

Search for Another Location

Airport or City:

Trip Planner

Search our weather history database for the weather conditions in past years. The results will help you decide how hot, cold, wet, or windy it might be!

Date:

Astronomy

Jan. 20, 2011 Rise Set
Actual Time 7:28 AM CST 4:50 PM CST
Civil Twilight 6:56 AM CST 5:22 PM CST
Nautical Twilight 6:20 AM CST 5:58 PM CST
Astronomical Twilight 5:45 AM CST 6:32 PM CST
Moon 6:17 PM CST (1/20) 7:43 AM CST (1/20)
Length of Visible Light 10h 26m
Length of Day
9h 22m
Full, 99% of the Moon is Illuminated
Jan 20
Full
Jan 26
Last Quarter
Feb 2
New
Feb 11
First Quarter
Feb 18
Full

Hourly Weather History & Observations

Time (CST) Temp. Windchill Dew Point Humidity Pressure Visibility Wind Dir Wind Speed Gust Speed Precip Events Conditions
12:15 AM 3.2 °F - -0.4 °F 85% 30.10 in 10.0 mi Calm Calm - N/A   Clear
12:35 AM 3.2 °F -4.2 °F -0.4 °F 85% 30.10 in 10.0 mi WSW 3.5 mph - N/A   Clear
1:15 AM 1.4 °F -6.2 °F -0.4 °F 92% 30.10 in 10.0 mi WSW 3.5 mph - N/A   Clear
1:35 AM 1.4 °F -9.9 °F -2.2 °F 85% 30.09 in 10.0 mi WSW 5.8 mph - N/A Snow Light Snow
1:55 AM 1.4 °F -8.3 °F -2.2 °F 85% 30.09 in 10.0 mi WSW 4.6 mph - N/A   Clear
2:15 AM 1.4 °F -6.2 °F -2.2 °F 85% 30.09 in 10.0 mi WSW 3.5 mph - N/A   Clear
2:35 AM 1.4 °F -8.3 °F -2.2 °F 85% 30.08 in 10.0 mi WSW 4.6 mph - N/A   Clear
2:55 AM -0.4 °F -8.3 °F -4.0 °F 85% 30.07 in 10.0 mi West 3.5 mph - N/A   Clear
3:15 AM -0.4 °F -10.4 °F -4.0 °F 85% 30.07 in 10.0 mi West 4.6 mph - N/A   Clear
3:35 AM -0.4 °F - -4.0 °F 85% 30.07 in 10.0 mi Calm Calm - N/A   Clear
3:55 AM 1.4 °F -6.2 °F -4.0 °F 78% 30.05 in 10.0 mi West 3.5 mph - N/A   Clear
4:15 AM -0.4 °F - -5.8 °F 78% 30.05 in 10.0 mi Calm Calm - N/A   Clear
4:35 AM -0.4 °F -8.3 °F -5.8 °F 78% 30.05 in 10.0 mi WSW 3.5 mph - N/A   Clear
4:55 AM -0.4 °F -10.4 °F -5.8 °F 78% 30.05 in 10.0 mi SW 4.6 mph - N/A   Clear
5:15 AM -0.4 °F -8.3 °F -5.8 °F 78% 30.05 in 10.0 mi WSW 3.5 mph - N/A   Clear
5:35 AM -0.4 °F - -5.8 °F 78% 30.04 in 10.0 mi Calm Calm - N/A   Clear
5:55 AM -0.4 °F -10.4 °F -5.8 °F 78% 30.04 in 10.0 mi SW 4.6 mph - N/A   Clear
6:15 AM -0.4 °F -12.0 °F -5.8 °F 78% 30.03 in 10.0 mi WSW 5.8 mph - N/A   Clear
6:35 AM -0.4 °F -10.4 °F -5.8 °F 78% 30.03 in 10.0 mi SW 4.6 mph - N/A   Clear
7:15 AM -0.4 °F -8.3 °F -5.8 °F 78% 30.01 in 10.0 mi WSW 3.5 mph - N/A   Clear
7:35 AM -0.4 °F -10.4 °F -5.8 °F 78% 30.01 in 10.0 mi WSW 4.6 mph - N/A   Clear
7:55 AM -0.4 °F -10.4 °F -5.8 °F 78% 30.00 in 10.0 mi WSW 4.6 mph - N/A   Clear
8:15 AM -0.4 °F -10.4 °F -5.8 °F 78% 30.00 in 10.0 mi SW 4.6 mph - N/A   Clear
8:35 AM -0.4 °F -13.4 °F -5.8 °F 78% 29.99 in 10.0 mi SW 6.9 mph - N/A   Scattered Clouds
8:55 AM 1.4 °F -9.9 °F -4.0 °F 78% 29.99 in 10.0 mi WSW 5.8 mph - N/A   Mostly Cloudy
9:15 AM 1.4 °F -12.5 °F -2.2 °F 85% 29.99 in 1.5 mi WSW 8.1 mph - N/A Snow Light Snow
9:55 AM 3.2 °F -9.1 °F -2.2 °F 78% 29.98 in 10.0 mi WSW 6.9 mph - N/A   Scattered Clouds
10:15 AM 3.2 °F -10.3 °F -2.2 °F 78% 29.97 in 10.0 mi WSW 8.1 mph - N/A   Clear
10:35 AM 3.2 °F -10.3 °F -2.2 °F 78% 29.97 in 10.0 mi West 8.1 mph 16.1 mph N/A   Clear
10:55 AM 3.2 °F -11.3 °F -2.2 °F 78% 29.97 in 10.0 mi WSW 9.2 mph - N/A   Clear
11:15 AM 5.0 °F -10.0 °F -2.2 °F 72% 29.95 in 7.0 mi West 10.4 mph 18.4 mph N/A   Scattered Clouds
11:35 AM 6.8 °F -6.9 °F -2.2 °F 67% 29.94 in 7.0 mi West 9.2 mph 17.3 mph N/A Snow Light Snow
11:55 AM 6.8 °F -8.6 °F -0.4 °F 72% 29.93 in 10.0 mi West 11.5 mph 18.4 mph N/A   Scattered Clouds
12:15 PM 6.8 °F -6.9 °F -0.4 °F 72% 29.93 in 10.0 mi West 9.2 mph 18.4 mph N/A   Clear
12:35 PM 6.8 °F -7.8 °F -0.4 °F 72% 29.92 in 10.0 mi West 10.4 mph 19.6 mph N/A   Scattered Clouds
1:15 PM 8.6 °F -4.7 °F -0.4 °F 67% 29.89 in 10.0 mi West 9.2 mph 21.9 mph N/A   Scattered Clouds
1:35 PM 8.6 °F -6.3 °F -0.4 °F 67% 29.89 in 10.0 mi West 11.5 mph - N/A   Clear
1:55 PM 8.6 °F -5.5 °F -2.2 °F 62% 29.89 in 10.0 mi WNW 10.4 mph 17.3 mph N/A   Clear
2:15 PM 8.6 °F -7.0 °F -2.2 °F 62% 29.89 in 10.0 mi WNW 12.7 mph 23.0 mph N/A   Clear
2:35 PM 6.8 °F -7.8 °F -2.2 °F 67% 29.90 in 10.0 mi WNW 10.4 mph 23.0 mph N/A   Clear
2:55 PM 6.8 °F -6.9 °F -2.2 °F 67% 29.90 in 10.0 mi West 9.2 mph 19.6 mph N/A   Scattered Clouds
3:15 PM 6.8 °F -7.8 °F -2.2 °F 67% 29.90 in 10.0 mi West 10.4 mph 20.7 mph N/A   Mostly Cloudy
3:35 PM 6.8 °F -4.8 °F -2.2 °F 67% 29.90 in 7.0 mi WNW 6.9 mph 19.6 mph N/A   Overcast
3:55 PM 6.8 °F -9.3 °F -2.2 °F 67% 29.90 in 10.0 mi West 12.7 mph 20.7 mph N/A   Mostly Cloudy
4:15 PM 6.8 °F -8.6 °F -4.0 °F 61% 29.90 in 10.0 mi West 11.5 mph 18.4 mph N/A   Mostly Cloudy
4:35 PM 5.0 °F -9.1 °F -4.0 °F 66% 29.91 in 10.0 mi West 9.2 mph - N/A   Mostly Cloudy
4:55 PM 5.0 °F -8.1 °F -4.0 °F 66% 29.91 in 10.0 mi West 8.1 mph - N/A   Scattered Clouds
5:15 PM 5.0 °F -10.8 °F -5.8 °F 61% 29.91 in 10.0 mi WNW 11.5 mph 16.1 mph N/A   Mostly Cloudy
5:35 PM 5.0 °F -10.8 °F -5.8 °F 61% 29.92 in 10.0 mi WNW 11.5 mph 17.3 mph N/A   Overcast
5:55 PM 3.2 °F -7.8 °F -5.8 °F 66% 29.92 in 10.0 mi West 5.8 mph - N/A   Scattered Clouds
6:15 PM 3.2 °F -9.1 °F -5.8 °F 66% 29.92 in 10.0 mi WNW 6.9 mph - N/A   Scattered Clouds
6:35 PM 3.2 °F -9.1 °F -5.8 °F 66% 29.93 in 10.0 mi West 6.9 mph - N/A   Scattered Clouds
6:55 PM 3.2 °F -10.3 °F -5.8 °F 66% 29.93 in 10.0 mi West 8.1 mph - N/A   Mostly Cloudy
7:15 PM 1.4 °F -13.5 °F -5.8 °F 72% 29.93 in 10.0 mi WNW 9.2 mph - N/A   Scattered Clouds
7:35 PM 1.4 °F -9.9 °F -7.6 °F 66% 29.94 in 10.0 mi WNW 5.8 mph - N/A   Scattered Clouds
7:55 PM 1.4 °F -9.9 °F -7.6 °F 66% 29.94 in 10.0 mi WNW 5.8 mph - N/A   Clear
8:15 PM -0.4 °F -12.0 °F -9.4 °F 66% 29.94 in 10.0 mi West 5.8 mph - N/A   Clear
8:35 PM -0.4 °F -12.0 °F -9.4 °F 66% 29.94 in 10.0 mi West 5.8 mph - N/A   Clear
8:55 PM -0.4 °F -12.0 °F -9.4 °F 66% 29.95 in 10.0 mi WNW 5.8 mph - N/A   Clear
9:15 PM -0.4 °F -15.7 °F -9.4 °F 66% 29.95 in 10.0 mi WNW 9.2 mph - N/A   Clear
9:35 PM -2.2 °F -15.6 °F -11.2 °F 66% 29.95 in 10.0 mi WNW 6.9 mph - N/A   Clear
9:55 PM -2.2 °F -16.8 °F -11.2 °F 66% 29.95 in 10.0 mi WNW 8.1 mph 16.1 mph N/A   Clear
10:15 PM -2.2 °F -16.8 °F -11.2 °F 66% 29.96 in 10.0 mi NW 8.1 mph 16.1 mph N/A   Clear
10:35 PM -2.2 °F -16.8 °F -11.2 °F 66% 29.96 in 10.0 mi WNW 8.1 mph 16.1 mph N/A   Clear
10:55 PM -4.0 °F -17.8 °F -11.2 °F 71% 29.96 in 10.0 mi West 6.9 mph - N/A   Clear
11:15 PM -5.8 °F -19.9 °F -11.2 °F 77% 29.96 in 10.0 mi NW 6.9 mph - N/A   Clear
11:35 PM -5.8 °F -18.4 °F -13.0 °F 71% 29.97 in 10.0 mi WNW 5.8 mph - N/A   Clear
11:55 PM -5.8 °F -19.9 °F -14.8 °F 65% 29.97 in 10.0 mi WNW 6.9 mph - N/A   Clear